TimeCDT,TemperatureF,Dew PointF,Humidity,Sea Level PressureIn,VisibilityMPH,Wind Direction,Wind SpeedMPH,Gust SpeedMPH,PrecipitationIn,Events,Conditions,WindDirDegrees,DateUTC
12:13 AM,63.0,47.8,58,29.49,10.0,ESE,9.2,-,N/A,,Mostly Cloudy,120,2013-04-30 05:13:00
12:33 AM,63.5,48.9,59,29.48,10.0,ESE,10.4,-,N/A,,Mostly Cloudy,120,2013-04-30 05:33:00
12:53 AM,63.3,50.0,62,29.47,10.0,SE,11.5,-,N/A,,Scattered Clouds,130,2013-04-30 05:53:00
1:13 AM,61.9,50.9,67,29.46,10.0,SE,11.5,-,N/A,,Scattered Clouds,130,2013-04-30 06:13:00
1:33 AM,61.2,51.4,70,29.45,10.0,SE,9.2,-,N/A,,Scattered Clouds,130,2013-04-30 06:33:00
1:53 AM,61.3,52.0,71,29.43,10.0,SE,9.2,-,N/A,,Clear,130,2013-04-30 06:53:00
2:13 AM,61.2,52.7,74,29.42,10.0,SE,11.5,16.1,N/A,,Scattered Clouds,130,2013-04-30 07:13:00
2:33 AM,61.0,53.2,76,29.41,10.0,SE,13.8,-,N/A,,Mostly Cloudy,130,2013-04-30 07:33:00
2:53 AM,60.8,53.2,76,29.40,10.0,SE,11.5,19.6,N/A,,Scattered Clouds,130,2013-04-30 07:53:00
3:13 AM,60.1,53.1,78,29.39,10.0,SE,12.7,-,N/A,,Scattered Clouds,130,2013-04-30 08:13:00
3:33 AM,60.3,53.1,77,29.38,10.0,SE,12.7,18.4,N/A,,Clear,140,2013-04-30 08:33:00
3:53 AM,59.7,52.7,78,29.38,10.0,SE,13.8,-,N/A,,Clear,130,2013-04-30 08:53:00
4:13 AM,59.9,53.1,78,29.37,10.0,SE,10.4,-,N/A,,Clear,140,2013-04-30 09:13:00
4:33 AM,60.4,53.6,78,29.35,10.0,SE,11.5,-,N/A,,Clear,130,2013-04-30 09:33:00
4:53 AM,60.6,54.1,79,29.35,10.0,SE,13.8,19.6,N/A,,Clear,140,2013-04-30 09:53:00
5:13 AM,61.9,55.0,78,29.34,10.0,SSE,13.8,18.4,N/A,Thunderstorm,Clear,150,2013-04-30 10:13:00
5:33 AM,62.2,55.6,79,29.35,10.0,South,11.5,17.3,N/A,,Clear,170,2013-04-30 10:33:00
5:53 AM,63.5,55.6,75,29.36,10.0,South,8.1,19.6,N/A,,Clear,190,2013-04-30 10:53:00
6:13 AM,63.9,55.4,74,29.37,10.0,SSW,16.1,20.7,N/A,,Clear,200,2013-04-30 11:13:00
6:33 AM,63.5,54.7,73,29.38,10.0,SSW,13.8,20.7,N/A,,Clear,210,2013-04-30 11:33:00
6:53 AM,63.1,51.4,66,29.39,10.0,SW,19.6,25.3,N/A,,Clear,230,2013-04-30 11:53:00
7:13 AM,62.1,48.7,62,29.40,10.0,WSW,18.4,-,N/A,,Clear,250,2013-04-30 12:13:00
7:32 AM,59.9,47.5,64,29.43,10.0,West,21.9,26.5,N/A,,Clear,260,2013-04-30 12:32:00
7:53 AM,58.1,46.4,65,29.45,10.0,West,18.4,28.8,N/A,,Clear,270,2013-04-30 12:53:00
8:13 AM,56.7,45.7,67,29.46,10.0,WNW,20.7,28.8,N/A,,Clear,290,2013-04-30 13:13:00
8:33 AM,56.1,45.3,67,29.48,10.0,West,21.9,29.9,N/A,,Clear,280,2013-04-30 13:33:00
8:53 AM,55.4,44.8,67,29.51,10.0,West,27.6,33.4,N/A,,Clear,280,2013-04-30 13:53:00
9:13 AM,54.9,44.1,67,29.53,10.0,West,27.6,33.4,N/A,,Clear,280,2013-04-30 14:13:00
9:33 AM,55.0,45.0,69,29.55,10.0,West,24.2,33.4,N/A,,Clear,280,2013-04-30 14:33:00
9:53 AM,57.0,44.6,63,29.56,10.0,West,20.7,28.8,N/A,,Clear,280,2013-04-30 14:53:00
10:13 AM,58.5,44.2,59,29.57,10.0,WNW,19.6,28.8,N/A,,Clear,290,2013-04-30 15:13:00
10:33 AM,58.8,43.0,56,29.58,10.0,WNW,24.2,31.1,N/A,,Clear,290,2013-04-30 15:33:00
10:53 AM,59.7,43.3,55,29.61,10.0,West,17.3,28.8,N/A,,Clear,280,2013-04-30 15:53:00
11:13 AM,59.4,43.2,55,29.62,10.0,West,23.0,27.6,N/A,,Clear,280,2013-04-30 16:13:00
11:33 AM,60.4,42.4,51,29.62,10.0,WNW,19.6,27.6,N/A,,Clear,290,2013-04-30 16:33:00
11:53 AM,61.7,40.3,45,29.64,10.0,West,26.5,34.5,N/A,,Clear,270,2013-04-30 16:53:00
12:13 PM,61.9,36.9,39,29.66,10.0,West,18.4,25.3,N/A,,Clear,270,2013-04-30 17:13:00
12:33 PM,62.8,33.8,34,29.67,10.0,West,21.9,32.2,N/A,,Clear,280,2013-04-30 17:33:00
12:53 PM,63.3,32.0,31,29.67,10.0,WNW,19.6,27.6,N/A,,Clear,290,2013-04-30 17:53:00
1:13 PM,63.7,31.3,30,29.68,10.0,West,19.6,25.3,N/A,,Clear,270,2013-04-30 18:13:00
1:33 PM,64.2,29.5,27,29.68,10.0,West,18.4,24.2,N/A,,Clear,280,2013-04-30 18:33:00
1:53 PM,63.0,28.6,27,29.69,10.0,West,15.0,25.3,N/A,,Clear,260,2013-04-30 18:53:00
2:13 PM,65.8,30.2,26,29.70,10.0,West,20.7,26.5,N/A,,Scattered Clouds,260,2013-04-30 19:13:00
2:33 PM,63.9,26.8,25,29.69,10.0,West,16.1,28.8,N/A,,Clear,270,2013-04-30 19:33:00
2:53 PM,64.2,24.4,22,29.71,10.0,WNW,20.7,27.6,N/A,,Scattered Clouds,290,2013-04-30 19:53:00
3:13 PM,64.6,25.3,23,29.72,10.0,West,18.4,25.3,N/A,,Scattered Clouds,280,2013-04-30 20:13:00
3:33 PM,65.7,27.1,23,29.73,10.0,West,17.3,25.3,N/A,,Clear,280,2013-04-30 20:33:00
3:53 PM,64.6,26.1,23,29.75,10.0,West,18.4,25.3,N/A,,Clear,270,2013-04-30 20:53:00
4:13 PM,63.7,26.2,24,29.76,10.0,WNW,18.4,25.3,N/A,,Clear,290,2013-04-30 21:13:00
4:33 PM,61.9,27.7,27,29.78,10.0,West,12.7,21.9,N/A,,Scattered Clouds,280,2013-04-30 21:33:00
4:53 PM,60.4,30.0,32,29.79,7.0,WNW,10.4,-,N/A,,Mostly Cloudy,290,2013-04-30 21:53:00
5:13 PM,60.1,32.0,35,29.82,10.0,West,13.8,17.3,N/A,,Overcast,280,2013-04-30 22:13:00
5:33 PM,59.7,32.2,35,29.82,7.0,WNW,9.2,-,N/A,,Overcast,290,2013-04-30 22:33:00
5:53 PM,59.7,32.5,36,29.83,10.0,West,10.4,16.1,N/A,,Mostly Cloudy,280,2013-04-30 22:53:00
6:13 PM,59.2,32.2,36,29.83,10.0,West,8.1,12.7,N/A,,Mostly Cloudy,260,2013-04-30 23:13:00
6:33 PM,59.4,33.3,37,29.86,10.0,West,9.2,-,N/A,,Mostly Cloudy,280,2013-04-30 23:33:00
6:53 PM,58.5,33.4,39,29.87,10.0,West,10.4,19.6,N/A,,Mostly Cloudy,260,2013-04-30 23:53:00
7:13 PM,58.1,32.5,38,29.88,10.0,West,10.4,-,N/A,,Overcast,260,2013-05-01 00:13:00
7:33 PM,56.7,33.8,42,29.88,10.0,West,9.2,-,N/A,,Scattered Clouds,260,2013-05-01 00:33:00
8:13 PM,54.5,36.5,51,29.89,10.0,West,6.9,-,N/A,,Scattered Clouds,260,2013-05-01 01:13:00
8:33 PM,54.9,35.6,48,29.89,10.0,West,6.9,-,N/A,,Clear,280,2013-05-01 01:33:00
8:53 PM,55.0,35.2,47,29.90,10.0,WNW,10.4,-,N/A,,Mostly Cloudy,300,2013-05-01 01:53:00
9:13 PM,53.6,34.0,47,29.90,10.0,WNW,6.9,-,N/A,,Scattered Clouds,290,2013-05-01 02:13:00
9:33 PM,52.3,34.7,51,29.92,10.0,WNW,8.1,-,N/A,,Mostly Cloudy,300,2013-05-01 02:33:00
10:13 PM,51.6,33.8,51,29.95,10.0,WNW,12.7,-,N/A,,Overcast,290,2013-05-01 03:13:00
10:33 PM,50.9,32.7,50,29.95,10.0,WNW,12.7,19.6,N/A,,Mostly Cloudy,300,2013-05-01 03:33:00
10:53 PM,50.2,33.4,53,29.96,10.0,WNW,9.2,-,N/A,,Mostly Cloudy,300,2013-05-01 03:53:00
11:13 PM,49.5,33.8,55,29.98,10.0,NW,15.0,20.7,N/A,,Overcast,310,2013-05-01 04:13:00
11:33 PM,49.1,33.4,55,29.99,10.0,WNW,10.4,17.3,N/A,,Overcast,300,2013-05-01 04:33:00
11:53 PM,48.2,32.5,55,30.00,10.0,NW,13.8,18.4,N/A,,Overcast,310,2013-05-01 04:53:00